Location: Newark
(48.4317°S, 179.1125°W)
Time: 00:14:55
(UTC+00:00)

ISS - Visible Passes

Search period start: 27 January 2020 00:00
Search period end: 06 February 2020 00:00
Orbit: 416 x 423 km, 51.6° (Epoch: 27 January)

Date Brightness Start Highest point End Pass type
(mag) Time Alt. Az. Time Alt. Az. Time Alt. Az.
27 Jan -1.6 15:50:37 10° N 15:53:06 19° NE 15:55:36 10° E visible
28 Jan -1.2 15:04:16 10° NNE 15:05:47 12° NE 15:07:18 10° ENE visible
29 Jan -2.9 15:51:20 10° NW 15:54:33 42° NNE 15:57:48 10° ESE visible
30 Jan -2.4 15:05:30 19° N 15:07:07 28° NE 15:10:06 10° E visible
31 Jan -1.8 14:19:45 19° NE 14:19:45 19° NE 14:22:13 10° E visible
31 Jan -3.7 15:52:45 10° WNW 15:56:09 85° NNE 15:59:35 10° ESE visible
01 Feb -3.6 15:06:55 26° NW 15:08:36 61° NNE 15:12:00 10° ESE visible
02 Feb -3.1 14:21:05 41° NNE 14:21:05 41° NNE 14:24:21 10° ESE visible
02 Feb -3.3 15:54:28 10° W 15:57:51 59° SSW 16:01:16 10° ESE visible
03 Feb -1.6 13:35:13 19° E 13:35:13 19° E 13:36:35 10° E visible
03 Feb -3.6 15:08:10 22° W 15:10:13 73° SSW 15:13:39 10° ESE visible
04 Feb -3.9 14:22:17 71° NW 14:22:36 85° NNE 14:26:03 10° ESE visible
04 Feb -2.8 15:56:17 10° W 15:59:37 47° S 16:02:57 10° ESE visible
05 Feb -2.3 13:36:23 32° E 13:36:23 32° E 13:38:24 10° ESE visible
05 Feb -3.0 15:09:19 15° W 15:11:55 51° S 15:15:16 10° ESE visible
